Tillbaka till svenska Fidonet
English   Information   Debug  
FILM   0/18
FNEWS_PUBLISH   5034
FN_SYSOP   42247
FN_SYSOP_OLD1   71952
FTP_FIDO   0/2
FTSC_PUBLIC   0/13979
FUNNY   0/4886
GENEALOGY.EUR   0/71
GET_INFO   105
GOLDED   0/408
HAM   0/16786
HOLYSMOKE   0/6791
HOT_SITES   0/1
HTMLEDIT   0/71
HUB203   466
HUB_100   264
HUB_400   39
HUMOR   0/29
IC   1624/2851
INTERNET   0/424
INTERUSER   0/3
IP_CONNECT   719
JAMNNTPD   0/233
JAMTLAND   0/47
KATTY_KORNER   0/41
LAN   0/16
LINUX-USER   0/19
LINUXHELP   0/1155
LINUX   0/22430
LINUX_BBS   0/957
mail   18.68
mail_fore_ok   249
MENSA   0/341
MODERATOR   0/102
MONTE   0/992
MOSCOW_OKLAHOMA   0/1245
MUFFIN   0/783
MUSIC   0/321
N203_STAT   938
N203_SYSCHAT   313
NET203   321
NET204   69
NET_DEV   0/10
NORD.ADMIN   0/101
NORD.CHAT   0/2572
NORD.FIDONET   189
NORD.HARDWARE   0/28
NORD.KULTUR   0/114
NORD.PROG   0/32
NORD.SOFTWARE   0/88
NORD.TEKNIK   0/58
NORD   0/453
OCCULT_CHAT   0/93
OS2BBS   0/787
OS2DOSBBS   0/580
OS2HW   0/42
OS2INET   0/37
OS2LAN   0/134
OS2PROG   0/36
OS2REXX   0/113
OS2USER-L   207
OS2   0/4835
OSDEBATE   0/18996
PASCAL   0/490
PERL   0/457
PHP   0/45
POINTS   0/405
POLITICS   0/29554
POL_INC   0/14731
PSION   103
R20_ADMIN   1133
R20_AMATORRADIO   0/2
R20_BEST_OF_FIDONET   16
R20_CHAT   0/897
R20_DEPP   0/3
R20_DEV   400
R20_ECHO2   1934
R20_ECHOPRES   0/35
R20_ESTAT   0/719
R20_FIDONETPROG...
...RAM.MYPOINT
  0/2
R20_FIDONETPROGRAM   0/22
R20_FIDONET   0/248
R20_FILEFIND   0/24
R20_FILEFOUND   0/22
R20_HIFI   0/3
R20_INFO2   3828
R20_INTERNET   0/12940
R20_INTRESSE   0/60
R20_INTR_KOM   0/99
R20_KANDIDAT.CHAT   42
R20_KANDIDAT   28
R20_KOM_DEV   112
R20_KONTROLL   0/13360
R20_KORSET   0/18
R20_LOKALTRAFIK   0/24
R20_MODERATOR   0/1852
R20_NC   76
R20_NET200   245
R20_NETWORK.OTH...
...ERNETS
  0/13
R20_OPERATIVSYS...
...TEM.LINUX
  0/44
R20_PROGRAMVAROR   0/1
R20_REC2NEC   534
R20_SFOSM   0/341
R20_SF   0/108
R20_SPRAK.ENGLISH   0/1
R20_SQUISH   107
R20_TEST   2
R20_WORST_OF_FIDONET   20
RAR   0/9
RA_MULTI   106
RA_UTIL   0/162
REGCON.EUR   0/2072
REGCON   0/13
SCIENCE   0/1206
SF   0/239
SHAREWARE_SUPPORT   0/5146
SHAREWRE   0/14
SIMPSONS   0/169
STATS_OLD1   0/2539.065
STATS_OLD2   0/2530
STATS_OLD3   0/2395.095
STATS_OLD4   0/1692.25
SURVIVOR   0/495
SYSOPS_CORNER   0/3
SYSOP   0/84
TAGLINES   0/112
TEAMOS2   0/4530
TECH   0/2617
TEST.444   0/105
TRAPDOOR   0/19
TREK   0/755
TUB   0/290
UFO   0/40
UNIX   0/1316
USA_EURLINK   0/102
USR_MODEMS   0/1
VATICAN   0/2740
VIETNAM_VETS   0/14
VIRUS   0/378
VIRUS_INFO   0/201
VISUAL_BASIC   0/473
WHITEHOUSE   0/5187
WIN2000   0/101
WIN32   0/30
WIN95   0/4291
WIN95_OLD1   0/70272
WINDOWS   0/1517
WWB_SYSOP   0/419
WWB_TECH   0/810
ZCC-PUBLIC   0/1
ZEC   4

 
4DOS   0/134
ABORTION   0/7
ALASKA_CHAT   0/506
ALLFIX_FILE   0/1313
ALLFIX_FILE_OLD1   0/7997
ALT_DOS   0/152
AMATEUR_RADIO   0/1039
AMIGASALE   0/14
AMIGA   0/331
AMIGA_INT   0/1
AMIGA_PROG   0/20
AMIGA_SYSOP   0/26
ANIME   0/15
ARGUS   0/924
ASCII_ART   0/340
ASIAN_LINK   0/651
ASTRONOMY   0/417
AUDIO   0/92
AUTOMOBILE_RACING   0/105
BABYLON5   0/17862
BAG   135
BATPOWER   0/361
BBBS.ENGLISH   0/382
BBSLAW   0/109
BBS_ADS   0/5290
BBS_INTERNET   0/507
BIBLE   0/3563
BINKD   0/1119
BINKLEY   0/215
BLUEWAVE   0/2173
CABLE_MODEMS   0/25
CBM   0/46
CDRECORD   0/66
CDROM   0/20
CLASSIC_COMPUTER   0/378
COMICS   0/15
CONSPRCY   0/899
COOKING   42383
COOKING_OLD1   0/24719
COOKING_OLD2   0/40862
COOKING_OLD3   0/37489
COOKING_OLD4   0/35496
COOKING_OLD5   9370
C_ECHO   0/189
C_PLUSPLUS   0/31
DIRTY_DOZEN   0/201
DOORGAMES   0/2388
DOS_INTERNET   0/196
duplikat   6103
ECHOLIST   0/18295
EC_SUPPORT   0/318
ELECTRONICS   0/359
ELEKTRONIK.GER   1534
ENET.LINGUISTIC   0/13
ENET.POLITICS   0/4
ENET.SOFT   0/11701
ENET.SYSOP   34433
ENET.TALKS   0/32
ENGLISH_TUTOR   0/2000
EVOLUTION   0/1335
FDECHO   0/217
FDN_ANNOUNCE   3721/7068
FIDONEWS   25233
FIDONEWS_OLD1   0/49742
FIDONEWS_OLD2   0/35949
FIDONEWS_OLD3   0/30874
FIDONEWS_OLD4   0/37224
FIDO_SYSOP   12977
FIDO_UTIL   0/180
FILEFIND   0/209
FILEGATE   0/212
Möte HAM, 16786 texter
 lista första sista föregående nästa
Text 3138, 801 rader
Skriven 2009-08-13 22:00:23 av Amsat List (1:323/120.0)
Ärende: [keps]  orb09225.amsa
=============================
[keps]  orb09225.amsa

Return-Path: <keps-bounces@amsat.org>
X-Rcpt: craig.healy@chowda.com
X-UIDL: 1250212080.35860

SB KEPS @ AMSAT  $ORB09225.O
Orbital Elements  09225.OSCAR

HR AMSAT ORBITAL ELEMENTS FOR OSCAR SATELLITES
FROM WA5QGD FORT WORTH,TX August 13, 2009
Send Subscribe/unsubscribe to KEPS at 
http://www.amsat.org/mailman/listinfo/keps
BID: ORB09225.O
TO ALL RADIO AMATEURS BT

Satellite: AO-07
Catalog number: 07530
Epoch time:      09225.62917936
Element set:     554
Inclination:      101.4242 deg
RA of node:       248.1937 deg
Eccentricity:    0.0011823
Arg of perigee:   155.0655 deg
Mean anomaly:     205.0989 deg
Mean motion:   12.53576252 rev/day
Decay rate:       -2.7e-07 rev/day^2
Epoch rev:           58991
Checksum:              311

Satellite: FO-29
Catalog number: 24278
Epoch time:      09225.16762400
Element set:     109
Inclination:      098.5446 deg
RA of node:       091.5261 deg
Eccentricity:    0.0350433
Arg of perigee:   202.6010 deg
Mean anomaly:     155.9360 deg
Mean motion:   13.52944580 rev/day
Decay rate:       -5.8e-07 rev/day^2
Epoch rev:           64145
Checksum:              292

Satellite: SO-33
Catalog number: 25509
Epoch time:      09224.95215586
Element set:     517
Inclination:      031.4293 deg
RA of node:       091.5092 deg
Eccentricity:    0.0354081
Arg of perigee:   114.8536 deg
Mean anomaly:     248.9345 deg
Mean motion:   14.28260293 rev/day
Decay rate:        2.8e-07 rev/day^2
Epoch rev:           56395
Checksum:              316

Satellite: RS-22
Catalog number: 27939
Epoch time:      09225.70468079
Element set:     864
Inclination:      097.9347 deg
RA of node:       098.4560 deg
Eccentricity:    0.0012950
Arg of perigee:   315.0063 deg
Mean anomaly:     045.0086 deg
Mean motion:   14.63334025 rev/day
Decay rate:       -3.7e-07 rev/day^2
Epoch rev:           31398
Checksum:              317

Satellite: VO-52
Catalog number: 28650
Epoch time:      09224.03664404
Element set:    0296
Inclination:      097.7381 deg
RA of node:       283.7616 deg
Eccentricity:    0.0026567
Arg of perigee:   204.8459 deg
Mean anomaly:     155.1449 deg
Mean motion:   14.81608976 rev/day
Decay rate:       -6.0e-07 rev/day^2
Epoch rev:           23091
Checksum:              327

/EX
SB KEPS @ AMSAT  $ORB09225.D
Orbital Elements  09225.MICROS

HR AMSAT ORBITAL ELEMENTS FOR THE MICROSATS
FROM WA5QGD FORT WORTH,TX August 13, 2009
Send Subscribe/unsubscribe to KEPS at 
http://www.amsat.org/mailman/listinfo/keps
BID: ORB09225.D
TO ALL RADIO AMATEURS BT

Satellite: AO-16
Catalog number: 20439
Epoch time:      09225.01734438
Element set:     675
Inclination:      098.2828 deg
RA of node:       190.8479 deg
Eccentricity:    0.0011308
Arg of perigee:   007.2810 deg
Mean anomaly:     352.8540 deg
Mean motion:   14.31830441 rev/day
Decay rate:       -5.0e-08 rev/day^2
Epoch rev:            2128
Checksum:              284

Satellite: LO-19
Catalog number: 20442
Epoch time:      09225.41436847
Element set:     590
Inclination:      098.2472 deg
RA of node:       198.2693 deg
Eccentricity:    0.0011843
Arg of perigee:   002.3963 deg
Mean anomaly:     357.7268 deg
Mean motion:   14.32065264 rev/day
Decay rate:       -5.8e-07 rev/day^2
Epoch rev:            2150
Checksum:              305

Satellite: AO-27
Catalog number: 22825
Epoch time:      09224.99046322
Element set:     313
Inclination:      098.4407 deg
RA of node:       176.6364 deg
Eccentricity:    0.0009411
Arg of perigee:   096.6879 deg
Mean anomaly:     263.5386 deg
Mean motion:   14.29270535 rev/day
Decay rate:       -7.4e-07 rev/day^2
Epoch rev:           82802
Checksum:              326

Satellite: IO-26
Catalog number: 22826
Epoch time:      09225.04065347
Element set:      42
Inclination:      098.4338 deg
RA of node:       177.4097 deg
Eccentricity:    0.0009956
Arg of perigee:   091.6899 deg
Mean anomaly:     268.5426 deg
Mean motion:   14.29523311 rev/day
Decay rate:       -2.0e-08 rev/day^2
Epoch rev:           82813
Checksum:              323

Satellite: GO-32
Catalog number: 25397
Epoch time:      09225.79407241
Element set:     964
Inclination:      098.3261 deg
RA of node:       245.0466 deg
Eccentricity:    0.0002242
Arg of perigee:   085.7800 deg
Mean anomaly:     274.3623 deg
Mean motion:   14.23162310 rev/day
Decay rate:        7.0e-08 rev/day^2
Epoch rev:           57632
Checksum:              288

Satellite: NO-44
Catalog number: 26931
Epoch time:      09225.65355506
Element set:     239
Inclination:      067.0519 deg
RA of node:       276.2960 deg
Eccentricity:    0.0006421
Arg of perigee:   277.1666 deg
Mean anomaly:     082.8731 deg
Mean motion:   14.29564208 rev/day
Decay rate:       1.25e-06 rev/day^2
Epoch rev:           41079
Checksum:              313

Satellite: SO-50
Catalog number: 27607
Epoch time:      09225.34564195
Element set:     957
Inclination:      064.5571 deg
RA of node:       211.4901 deg
Eccentricity:    0.0061113
Arg of perigee:   191.8340 deg
Mean anomaly:     168.1314 deg
Mean motion:   14.71452130 rev/day
Decay rate:       -5.1e-07 rev/day^2
Epoch rev:           35708
Checksum:              280

Satellite: CO-55
Catalog number: 27844
Epoch time:      09225.53361855
Element set:     643
Inclination:      098.7128 deg
RA of node:       233.8898 deg
Eccentricity:    0.0010044
Arg of perigee:   344.1188 deg
Mean anomaly:     015.9670 deg
Mean motion:   14.20650854 rev/day
Decay rate:        3.2e-07 rev/day^2
Epoch rev:           31740
Checksum:              310

